Reflectivity
-20 -20 -20 1 24 31 18 -4 15 -19 -19 -20 -20 -20 -20 -20 -20 -20 -20 7 -20 -20 -20 -20 -20 -20 -20 -20 -20 -20 -20 -20 -20 -20 -20 -20 -20 -20 -20 3 -2 -20 -20
-20 -20 -20 14 -2 14 2 28 -20 -20 -20 -20 -20 -20 -20 -20 -20 -20 -20 -20 -19 -20 -20 -20 -20 -20 -20 -20 -20 -20 -20 -20 -20 -20 -20 -20 -20 -20 -20 -20 -17 -20 -20
-20 -0 -15 -20 -20 -18 -20 -20 -20 -20 -20 -20 -20 -20 -20 -20 -20 -20 -20 -7 -20 -20 -20 -20 -20 -20 -20 -20 -20 -20 -20 -20 -20 -20 -20 -20 -20 -20 -19 -20 9 -20 -13
-20 -20 -20 -17 -20 -20 -20 -20 -20 -20 -20 -20 -20 -20 -20 -20 -20 -20 -20 -20 -15 -20 -20 -20 -20 -20 -20 -20 -20 -20 -20 -20 -20 -20 -20 -20 -20 -20 -20 -20 -20 -20 -20
-20 -20 -20 -20 -20 -20 -20 -20 -20 -20 -20 -20 -20 -20 -20 -20 -20 -20 -20 -20 -20 -20 -20 -20 -16 3 -3 -20 -20 -20 -20 -20 -20 -20 -20 -20 -20 -20 -20 -20 -20 -19 6
-20 -20 -20 -20 -20 -20 -20 -20 -20 -20 -20 -20 -20 -20 -20 -20 -20 -20 -20 -20 -20 -20 -20 -20 -20 -20 -20 -20 -20 -20 -20 -20 -20 -20 -20 -20 -20 -20 -20 -20 -20 0 -20
-20 -20 -20 -20 -20 -20 -20 -20 -20 -20 -20 -20 -20 -20 -20 -20 -20 -20 -20 -20 -20 -20 -20 -20 -20 -20 -20 -20 -20 -20 -20 -20 -20 -20 -20 -20 -20 -20 -19 -20 -20 -20 -20
-20 -20 -20 -20 -20 -20 -20 -20 -20 -20 -20 -20 -20 -20 -20 -20 -20 -20 -20 -20 -20 -20 -20 -20 -20 -20 -20 -20 -20 -20 -20 -20 -20 -20 -20 -20 -20 -20 -20 -20 -20 -20 -20
-20 -20 -20 -20 -20 -20 -20 -20 -20 -20 -20 -20 -20 -20 -20 -20 -20 -20 -20 -20 -20 -20 -20 -20 -20 -20 -20 -20 -20 -20 -20 -20 -20 -20 -20 -20 -20 -20 -20 -20 -20 -20 -20
-20 -20 -20 -20 -20 -20 -20 -20 -20 -20 -20 -20 -20 -20 -20 -20 -20 -20 -20 -20 -20 -20 -20 -20 -20 -20 -20 -20 -20 -20 -20 -20 -20 -20 -20 -20 -20 -20 -20 -20 -20 -20 -20
-20 -20 -20 -20 -20 -20 -20 -20 -20 -20 -20 -20 -20 -20 -20 -20 -20 -20 -20 -20 -20 -20 -20 -20 -20 -20 -20 -20 -20 -20 -20 -20 -20 -20 -20 -20 -20 -20 -19 -20 -20 -20 -20
-20 -20 -20 -20 -20 -20 -20 -20 -20 -20 -20 -20 -20 -20 -20 -20 -20 -20 -20 -20 -20 -20 -20 -20 -20 -20 -20 -20 -20 -20 -20 -20 -20 -20 -20 -20 -20 -20 -20 -20 -20 -20 -20
-20 -20 -20 -20 -20 -20 -20 -20 -20 -20 -20 -20 -20 -20 -20 -20 -20 -20 -20 -20 -20 -20 -20 -20 -20 -20 -20 -20 -20 -20 -20 -20 -20 -20 -20 -20 -20 -20 -20 -20 -20 -20 -20
-20 -20 -20 -20 -20 -20 -20 -20 -20 -20 -20 -20 -20 -20 -20 -20 -20 -20 -20 -20 -20 -20 -20 -20 -20 -20 -20 -20 -20 -20 -20 -20 -20 -20 -20 -20 -20 -20 -20 -20 -20 -20 -20
-20 -20 -20 -20 -20 -20 -20 -20 -20 -20 -20 -20 -20 -20 -20 -20 -20 -20 -20 -20 -20 -20 -20 -20 -20 -20 -20 -20 -20 -20 -20 -20 -20 -20 -20 -20 -20 -20 -20 -20 -20 -20 -20
-20 -20 -20 -20 -20 -20 -20 -20 -20 -20 -20 -20 -20 -20 -20 -20 -20 -20 -20 -20 -20 -20 -20 -20 -20 -20 -20 -20 -20 -20 -20 -20 -20 -20 -20 -20 -20 -20 -20 -20 -20 -20 -20
-20 -20 -20 -20 -20 -20 -20 -20 -20 -20 -20 -20 -20 -20 -20 -20 -20 -20 -20 -20 -20 -20 -20 -20 -20 -20 -20 -20 -20 -20 -20 -20 -20 -20 -20 -20 -20 -20 -20 -20 -20 -20 -20
-20 -20 -20 -20 -20 -20 -20 -20 -20 -20 -20 -20 -20 -20 -20 -20 -20 -20 -20 -20 -20 -20 -20 -20 -20 -20 -20 -20 -20 -20 -20 -20 -20 -20 -20 -20 -20 -20 -20 -20 -20 -20 -20
-20 -20 -20 -20 -20 -20 -20 -20 -20 -20 -20 -20 -20 -20 -20 -20 -20 -20 -20 -20 -20 -20 -20 -20 -20 -20 -20 -20 -20 -20 -20 -20 -20 -20 -20 -20 -20 -20 -20 -20 -20 -9 -7
-20 -20 -20 -20 -20 -20 -20 -20 -20 -20 -20 -20 -20 -20 -20 -20 -20 -20 -20 -20 -20 -20 -20 -20 -20 -20 -20 -20 -20 -20 -20 -20 -20 -20 -20 -20 -20 -20 -20 -20 -20 -20 -20
-20 -20 -20 -20 -20 -20 -20 -20 -20 -20 -20 -20 -20 -20 -20 -20 -20 -20 -20 -20 -20 -20 -20 -20 -20 -20 -20 -20 -20 -20 -20 -20 -20 -20 -20 -20 -20 -20 -20 -20 -20 -20 2
-20 -20 -20 -20 -20 -20 -20 -20 -20 -20 -20 -20 -20 -20 -17 -11 -20 -20 -20 -20 -20 -20 -20 -20 -20 -20 -20 -20 -20 -20 -20 -20 -20 -20 -20 -20 -20 -20 -20 -20 -20 -20 -20
-20 -20 -20 -20 -20 -20 -20 -20 -20 -20 -20 17 10 -19 -4 -20 -17 -18 -20 -20 -20 -13 -20 -20 -20 -20 -20 -20 -20 -19 -20 -20 -20 -20 -20 -20 -20 -20 -20 -20 -20 -20 -10
-20 -20 -6 -19 -20 -20 -20 -20 -20 -6 23 26 -4 5 5 5 -11 -20 -20 -20 -20 -20 -20 -20 -20 -20 -20 -20 -20 -20 -19 -20 -20 -20 -20 -20 -20 -20 -20 -20 -4 13 2
-20 -18 -19 -3 7 -18 -20 -20 20 30 14 -14 2 -10 -16 -15 -20 -20 -20 -20 -20 -20 -20 -20 -20 -20 -20 -20 -20 -20 -20 -20 -20 -20 -20 -20 -20 -20 -20 -20 -20 -19 -8
-6 -3 -8 -20 -20 -20 -20 14 19 -18 1 10 5 -1 -14 -20 -20 -10 -16 -20 -20 -20 -20 -20 -20 -20 -20 -20 -20 -20 -20 -20 -20 -20 -20 -20 -20 -20 -20 -20 -20 -20 -10
Wind_Speed
9 11 8 4 9 6 6 5 6 6 5 7 7 7 7 7 6 6 6 9 8 9 9 9 9 8 6 6 5 4 4 3 1 4 1 3 5 5 3 5 5 5 4
14 10 13 13 12 8 3 6 6 6 6 7 9 9 8 8 9 7 8 8 10 11 10 10 9 7 8 7 6 7 6 4 2 4 3 4 3 5 8 8 5 7 7
14 16 14 12 11 9 7 7 7 7 7 8 8 7 8 10 8 7 8 9 10 12 9 9 9 9 9 8 7 6 5 5 4 3 4 3 4 6 5 7 5 6 4
14 14 14 13 12 9 7 6 6 7 10 8 7 9 10 10 9 10 10 10 8 8 6 6 6 7 7 6 8 7 6 6 6 4 4 4 3 3 3 3 4 3 4
14 14 13 12 11 10 8 6 6 8 7 7 8 8 9 9 6 7 7 8 9 9 6 6 8 12 9 8 4 6 6 5 4 5 4 4 4 4 4 3 3 2 2
13 12 11 11 10 9 7 8 7 8 8 7 9 8 7 6 12 10 8 6 8 7 7 7 6 11 9 9 5 11 8 5 5 3 2 3 4 3 3 3 3 3 3
12 11 10 7 8 7 7 7 8 7 7 7 7 7 7 6 13 12 12 6 7 7 7 6 6 7 10 7 8 8 10 12 11 3 4 5 4 4 4 4 4 2 3
11 9 7 9 8 7 7 6 7 6 7 6 6 7 7 5 9 6 10 7 8 7 6 6 6 7 8 8 7 8 6 5 5 3 5 2 0 3 1 2 3 4 4
10 8 9 8 8 7 7 7 6 7 7 6 6 7 7 6 10 10 10 6 6 5 5 5 6 7 11 13 7 7 7 5 2 3 1 3 6 4 4 4 5 4 3
11 9 8 7 7 7 7 7 6 7 6 5 6 6 7 6 9 11 8 5 6 3 3 5 8 6 9 9 7 6 7 4 5 4 3 3 3 3 2 3 2 3 2
11 9 8 7 8 7 6 6 7 7 7 6 6 4 5 5 7 12 12 6 4 3 2 3 4 9 10 11 10 5 4 5 8 5 5 5 3 4 4 4 2 2 1
11 11 10 8 7 7 8 5 7 7 7 6 5 4 3 4 7 9 9 9 6 3 3 3 4 7 8 10 9 10 12 7 6 5 4 4 3 4 3 4 5 4 3
13 12 11 8 7 6 7 6 5 6 6 5 4 4 3 2 3 7 9 10 7 4 4 8 11 9 8 6 7 8 7 5 5 5 4 4 4 5 6 5 5 5 5
15 12 9 11 8 6 5 4 4 4 5 6 5 4 4 3 2 3 3 4 7 6 8 7 7 6 5 5 6 6 4 3 4 3 3 4 4 5 5 5 4 7 4
14 12 11 9 7 6 5 3 5 1 4 6 5 7 7 4 3 4 3 3 3 4 7 4 4 5 5 4 4 5 5 5 5 3 4 5 4 4 5 4 4 4 4
14 11 10 10 7 7 7 6 9 6 6 9 9 8 1 8 9 6 2 2 1 4 3 3 2 3 4 3 5 4 4 5 3 3 4 4 5 5 4 4 3 3 3
14 14 10 10 9 9 6 8 7 3 8 9 12 13 10 9 8 4 4 9 3 4 2 2 3 4 3 3 3 3 3 3 3 4 4 4 4 4 4 4 3 3 3
14 14 12 10 9 9 8 7 7 7 6 3 2 5 10 10 7 3 2 3 4 2 2 2 4 3 2 3 2 2 4 4 3 4 4 4 5 4 3 4 4 4 3
14 11 11 10 10 10 8 7 6 6 5 5 2 2 7 7 3 2 2 2 1 2 4 4 3 3 2 3 1 3 3 2 3 4 4 4 4 3 4 4 5 8 6
11 14 11 8 10 10 9 9 7 8 8 7 7 8 4 5 3 4 4 3 2 4 4 4 3 3 4 3 2 3 4 5 4 4 4 4 4 3 3 5 4 5 5
9 9 12 7 11 9 10 10 10 9 10 9 9 9 11 8 7 5 5 5 4 4 5 5 3 4 4 3 3 4 4 4 3 4 4 4 4 4 5 4 4 5 4
9 10 7 7 8 7 5 5 4 6 10 10 8 9 16 6 5 5 6 5 6 5 5 5 4 5 4 3 4 5 4 3 3 4 4 4 5 5 5 5 5 6 5
10 11 8 4 8 8 6 6 6 6 5 6 8 8 9 7 6 4 4 6 6 6 5 5 5 5 4 5 5 5 5 2 1 2 3 4 4 5 5 5 6 5 6
11 13 11 6 7 8 6 5 3 4 5 8 8 8 9 7 7 7 5 8 5 5 6 5 6 7 6 6 5 5 4 2 2 1 2 3 4 5 5 7 7 6 7
8 11 9 9 7 9 9 9 9 8 7 9 9 9 9 7 6 5 6 6 5 6 6 7 5 8 8 11 8 7 7 6 2 1 2 4 5 7 7 5 5 6 6
11 14 12 11 10 9 9 8 9 8 8 6 11 8 8 6 6 6 6 7 6 6 7 5 7 10 10 7 8 9 8 6 3 3 2 3 5 6 7 6 8 5 7
Wind_Direction
193 192 195 69 89 17 13 48 62 74 76 74 67 60 52 49 42 62 70 58 57 55 46 44 32 25 23 14 8 9 15 19 304 302 319 330 343 339 3 63 64 52 35
200 108 94 92 94 107 131 66 55 55 51 65 60 54 49 48 50 48 57 61 65 58 50 42 28 23 25 8 10 11 10 354 343 322 320 351 10 342 39 43 44 55 35
103 103 101 100 100 94 71 58 58 61 57 57 58 52 44 45 61 62 67 61 71 67 61 53 32 31 30 22 20 15 353 355 2 353 346 345 24 14 21 42 6 15 32
101 99 100 102 97 92 95 75 73 76 68 61 55 56 51 45 36 49 50 52 82 79 61 62 57 43 32 27 34 15 9 22 15 21 16 6 3 349 41 23 17 17 349
94 92 93 96 98 99 98 90 78 77 73 62 58 58 55 50 40 58 57 50 53 51 55 57 40 41 39 40 48 21 27 16 19 29 27 15 9 18 16 334 5 344 311
95 100 105 106 108 111 104 88 81 76 70 67 61 59 48 46 34 49 78 64 48 44 42 36 35 29 12 9 39 59 55 39 26 24 30 28 10 3 351 347 341 15 341
105 108 112 115 110 107 101 94 83 87 86 80 78 70 54 34 27 36 75 70 63 47 38 34 26 17 14 1 26 62 49 34 46 72 47 19 16 348 334 353 348 319 262
113 127 121 116 119 123 126 126 115 109 101 95 84 71 53 23 16 50 97 81 78 63 55 44 40 15 6 22 26 29 32 37 24 44 82 49 359 302 316 245 260 285 294
132 129 128 131 129 128 128 126 124 95 88 76 75 70 68 19 1 99 115 110 88 75 49 45 50 25 359 11 39 18 5 3 294 300 209 256 270 325 330 354 357 359 328
144 140 136 137 133 127 130 116 96 97 91 84 75 73 72 54 39 68 100 127 100 88 38 17 1 16 1 13 22 7 21 326 325 355 342 298 283 288 5 59 1 7 333
138 131 120 117 120 124 110 111 111 107 100 97 95 74 71 70 49 66 74 90 121 104 62 354 337 341 344 346 5 359 329 302 8 14 7 357 354 319 313 310 276 145 10
128 127 128 131 135 123 122 118 122 125 123 124 115 83 47 50 59 45 55 59 53 82 12 334 317 321 319 322 337 316 335 11 31 30 30 355 349 356 342 317 306 256 196
135 140 143 131 126 125 127 137 137 142 145 158 146 140 125 50 34 35 22 18 34 61 359 311 303 311 318 333 346 24 37 42 31 25 358 338 317 308 328 341 346 317 298
145 148 137 135 137 149 149 144 152 176 177 172 185 170 159 136 72 46 53 32 20 16 342 325 323 323 326 56 40 31 45 42 56 32 354 324 336 358 356 357 356 347 2
150 146 146 151 150 122 95 152 132 189 181 140 149 147 138 147 199 161 117 37 4 330 324 7 17 48 39 27 20 27 19 24 31 8 8 355 344 343 359 3 23 8 32
155 155 161 160 145 136 129 92 38 92 95 103 128 137 74 149 163 184 235 336 331 338 41 25 21 64 62 31 31 14 5 13 5 14 14 4 354 2 7 0 20 25 5
167 165 161 164 151 150 149 141 129 42 68 89 122 133 150 175 187 187 5 340 346 132 63 15 82 82 75 56 33 26 344 332 345 21 29 9 8 358 11 357 344 358 330
172 170 165 168 155 156 155 145 139 147 149 166 241 159 172 177 194 187 83 322 1 19 130 140 107 108 108 89 35 12 337 360 24 29 21 32 19 11 354 347 340 330 322
173 169 169 167 158 154 153 154 158 149 163 166 159 265 217 199 209 244 155 201 175 228 167 115 119 111 110 101 51 343 351 359 44 39 25 22 1 23 337 322 336 329 330
175 168 170 160 159 162 164 169 172 174 176 183 187 201 167 127 204 228 213 232 234 216 133 132 144 116 111 105 57 357 9 43 38 27 2 356 356 358 331 316 324 326 318
168 170 171 155 164 170 176 183 188 184 181 191 202 201 190 182 197 204 213 212 200 190 145 139 145 118 126 108 56 50 83 57 29 3 352 350 358 342 323 309 310 315 305
165 175 165 152 161 166 168 175 180 155 178 186 203 200 189 189 203 205 203 191 180 161 160 154 145 139 146 121 103 107 88 57 18 0 356 347 339 326 324 320 310 310 307
164 173 172 152 159 156 161 165 179 180 192 152 168 178 182 190 215 209 194 160 159 155 162 150 130 138 132 113 114 127 120 102 334 61 358 336 327 317 315 311 306 302 316
172 175 169 160 155 158 157 163 166 182 171 157 165 177 185 192 200 197 170 165 157 144 150 133 135 141 137 130 127 117 121 143 84 40 350 316 315 312 308 304 298 299 314
167 167 179 176 168 171 174 175 168 166 193 158 173 185 197 205 192 169 166 158 145 131 132 132 142 143 147 134 143 145 162 147 142 240 306 313 308 303 289 278 310 314 304
173 172 180 183 191 185 180 180 193 180 179 169 165 186 191 194 162 164 154 143 123 127 131 137 138 126 128 133 149 155 167 182 182 250 300 313 310 298 299 290 310 299 296